Regional Weather Roundup
Issued by NWS

Home | Current Version | Previous Version | Graphics & Text | Print | Product List | Glossary On
Versions: 1 2 3 4 5 6 7 8 9 10 11 12 13 14 15 16 17 18 19 20 21 22 23 24 25 26 27 28 29 30 31 32 33 34 35 36 37 38 39 40 41 42 43 44 45 46 47 48 49 50
000
ASUS43 KTOP 012008
RWRKS

WEATHER ROUNDUP FOR KANSAS
NATIONAL WEATHER SERVICE GOODLAND KS
200 PM CST SUN FEB 01 2015

NOTE:  "FAIR" INDICATES FEW OR NO CLOUDS BELOW 12,000 FEET WITH NO
SIGNIFICANT WEATHER AND/OR OBSTRUCTIONS TO VISIBILITY.

KSZ001>006-013>018-027>032-041>047-012100-
NORTHWEST KANSAS

CITY           SKY/WX    TMP DP  RH WIND       PRES   REMARKS
GOODLAND       CLOUDY    18   9  68 N30G37    30.21S WCI  -1
HAYS           CLOUDY    19   3  49 N30G37    30.20R WCI   0
HILL CITY      CLOUDY    18   9  68 N30G38    30.24F WCI  -1
RUSSELL        LGT SNOW  19  12  74 NW32G45   30.18R WCI  -1
$$

KSZ061>065-074>080-084>089-012100-
SOUTHWEST KANSAS

CITY           SKY/WX    TMP DP  RH WIND       PRES   REMARKS
DODGE CITY     PTSUNNY   27  14  58 N28G40    30.17R WCI  11
ELKHART          N/A     31  15  52 N15         N/A  WCI  20
GARDEN CITY    SUNNY     27  11  51 N33G43    30.18F WCI  10
LIBERAL        MOSUNNY   34  19  55 N25G35    30.21S WCI  21
PRATT          CLOUDY    23  16  74 NW30G40   30.15R WCI   5
$$

KSZ066>073-081>083-090>101-012100-
SOUTHEAST KANSAS

CITY           SKY/WX    TMP DP  RH WIND       PRES   REMARKS
CHANUTE        CLOUDY    26  19  74 NW22G35   29.98R WCI  12
COFFEYVILLE    CLOUDY    29  20  69 NW23G36   30.01R WCI  15
HUTCHINSON     FLURRIES  22  12  65 N22G36    30.13R WCI   6
MEDICINE LODGE   N/A     29  16  58 N28G41    30.09F WCI  14
NEWTON         CLOUDY    19   9  63 N30G46    30.08R WCI   0
PARSONS        CLOUDY    28  20  71 NW28G36   30.00R WCI  13
WICHITA INTL   FLURRIES  24  13  62 N28G41    30.10R WCI   7
WICHITA JABRA  FLURRIES  22  20  92 NW30G39   30.09R WCI   4
WICHITA MCCONL MIX PCPN  23  14  68 N25G39    30.08R WCI   7
WINFIELD       PTSUNNY   28  16  60 NW32G44   30.09R WCI  12
$$

KSZ007>012-019>026-033>040-048>060-102>105-012100-
NORTHEAST KANSAS

CITY           SKY/WX    TMP DP  RH WIND       PRES   REMARKS
CONCORDIA      LGT SNOW  13   7  77 N23G39    30.16R WCI  -6
EMPORIA        MIX PCPN  20  13  74 NW26G38   30.02R WCI   2
LAWRENCE       CLOUDY    24  19  81 NW28G35   29.95R HAZE    WCI   7
MANHATTAN      LGT SNOW  16   9  74 N17G30    30.12R WCI   0
MARYSVILLE     SNOW      14  10  85 N17G28    30.09R VSB 1/2 WCI  -3
OLATHE IND     FLURRIES  24  20  84 NW28G43   29.90R WCI   7
OLATHE EXE     MIX PCPN  26  21  81 NW23G33   29.86R WCI  11
SALINA         LGT SNOW  19  11  70 NW32G43   30.16R WCI  -1
TOPEKA BILLARD LGT SNOW  21  14  74 NW28G36   30.01R WCI   3
TOPEKA FORBES  LGT SNOW  22  15  75 NW33G40   29.99R WCI   3
$$


USA.gov is the U.S. government's official web portal to all federal, state and local government web resources and services.